This is the latest recevied weather packets stored in our database for station/object KB1YYC. If no packets are shown the sender has not sent any weather packets the latest 10 day(s).
| Time | Temp. | Humidity | Pressure | Rain* | Wind** | Luminosity | Snow |
|---|---|---|---|---|---|---|---|
| 1777429029 | 2.78° C | 77% | 1021.5 hPa | 0 mm | - | 0 W/m² | - |
| 1777428726 | 2.78° C | 77% | 1021.7 hPa | 0 mm | - | 0 W/m² | - |
| 1777428423 | 2.78° C | 76% | 1021.4 hPa | 0 mm | - | 0 W/m² | - |
| 1777428118 | 3.33° C | 76% | 1021.5 hPa | 0 mm | - | 0 W/m² | - |
| 1777427814 | 3.33° C | 75% | 1021.7 hPa | 0 mm | - | 0 W/m² | - |
| 1777427511 | 3.33° C | 75% | 1021.6 hPa | 0 mm | - | 0 W/m² | - |
| 1777427206 | 3.33° C | 74% | 1021.6 hPa | 0 mm | - | 0 W/m² | - |
| 1777426905 | 3.89° C | 73% | 1021.7 hPa | 0 mm | - | 0 W/m² | - |
| 1777426602 | 3.89° C | 73% | 1021.5 hPa | 0 mm | - | 0 W/m² | - |
| 1777426297 | 3.89° C | 72% | 1021.7 hPa | 0 mm | - | 0 W/m² | - |
| 1777425992 | 3.89° C | 71% | 1021.6 hPa | 0 mm | - | 0 W/m² | - |
| 1777425687 | 4.44° C | 70% | 1021.7 hPa | 0 mm | - | 0 W/m² | - |
| 1777425383 | 4.44° C | 70% | 1021.6 hPa | 0 mm | - | 0 W/m² | - |
| 1777425080 | 4.44° C | 70% | 1021.6 hPa | 0 mm | - | 0 W/m² | - |
| 1777424776 | 5° C | 70% | 1021.7 hPa | 0 mm | - | 0 W/m² | - |
| 1777424471 | 5° C | 70% | 1021.5 hPa | 0 mm | - | 0 W/m² | - |
| 1777424167 | 5° C | 69% | 1021.7 hPa | 0 mm | - | 0 W/m² | - |
| 1777423864 | 5° C | 66% | 1021.5 hPa | 0 mm | - | 0 W/m² | - |
| 1777423561 | 5° C | 65% | 1021.4 hPa | 0 mm | - | 0 W/m² | - |
| 1777423256 | 5.56° C | 64% | 1021.5 hPa | 0 mm | - | 0 W/m² | - |
| 1777422950 | 5.56° C | 63% | 1021.7 hPa | 0 mm | - | 0 W/m² | - |
| 1777422646 | 5.56° C | 60% | 1021.6 hPa | 0 mm | - | 0 W/m² | - |
| 1777422341 | 5.56° C | 58% | 1021.6 hPa | 0 mm | - | 0 W/m² | - |
| 1777422036 | 6.11° C | 57% | 1021.7 hPa | 0 mm | - | 0 W/m² | - |
| 1777421731 | 5.56° C | 54% | 1021.6 hPa | 0 mm | - | 0 W/m² | - |
* Rain latest hour (hover to see other rain measurements)
** Current wind speed in m/s (hover to see current wind gust speed)